Overview Statistics Trail Chart Weather Telemetry Raw packets
 

This is the latest recevied weather packets stored in our database for station/object N3FKR. If no packets are shown the sender has not sent any weather packets the latest 10 day(s).

<< 4 5 6 7 8 9 10 >>
Time Temp. Humidity Pressure Rain* Wind** Luminosity Snow
1788533474 28.33° C 72% 1015.9 hPa 0 mm - 629 W/m² -
1788533170 28.33° C 75% 1015.7 hPa 0 mm - 610 W/m² -
1788532866 28.33° C 74% 1016 hPa 0 mm - 593 W/m² -
1788532561 27.78° C 73% 1015.8 hPa 0 mm - 569 W/m² -
1788532257 27.78° C 73% 1015.8 hPa 0 mm - 554 W/m² -
1788531954 28.33° C 71% 1015.5 hPa 0 mm - 553 W/m² -
1788531654 27.78° C 74% 1015.5 hPa 0 mm - 538 W/m² -
1788531349 27.78° C 75% 1015.8 hPa 0 mm - 520 W/m² -
1788531044 27.78° C 74% 1015.6 hPa 0 mm - 515 W/m² -
1788530739 27.78° C 75% 1015.6 hPa 0 mm - 518 W/m² -
1788530434 27.78° C 77% 1015.7 hPa 0 mm - 510 W/m² -
1788530133 27.22° C 78% 1015.8 hPa 0 mm - 500 W/m² -
1788529829 27.22° C 77% 1015.5 hPa 0 mm - 476 W/m² -
1788529525 27.22° C 78% 1015.6 hPa 0 mm - 458 W/m² -
1788529219 27.22° C 78% 1015.7 hPa 0 mm - 445 W/m² -
1788528914 27.22° C 77% 1015.6 hPa 0 mm - 426 W/m² -
1788528610 27.22° C 78% 1015.8 hPa 0 mm - 415 W/m² -
1788528310 27.22° C 79% 1015.8 hPa 0 mm - 394 W/m² -
1788528009 26.67° C 81% 1015.6 hPa 0 mm - 384 W/m² -
1788527704 26.11° C 82% 1015.7 hPa 0 mm - 346 W/m² -
1788527400 25.56° C 83% 1015.9 hPa 0 mm - 344 W/m² -
1788527099 26.11° C 82% 1015.9 hPa 0 mm - 332 W/m² -
1788526794 26.11° C 81% 1015.7 hPa 0 mm - 312 W/m² -
1788526490 26.11° C 81% 1015.8 hPa 0 mm - 299 W/m² -
1788526190 26.11° C 82% 1015.8 hPa 0 mm - 279 W/m² -

* Rain latest hour (hover to see other rain measurements)
** Current wind speed in m/s (hover to see current wind gust speed)